When you browse on this site, cookies collect data to enhance your experience and personalize the content and advertising you see.
Visit our Privacy Policy to learn more. By continuing to use the site, you agree to this use of cookies and data.
  • In Romania
  • List of Countries
  • For 7 days
  • Water Temperature
  • Satellite Maps
  • Weather Map
  • Weather Widgets
  • user-avatar
    Login

    Hourly Weather Arroyo

    Today, 17 February, Sunday

    Time Temperature Precipitation Wind Pressure Humidity
    00:00 +6°C° 0 mm 2 mps 697 mmHg 62%
    01:00 +5°C° 0 mm 2 mps 697 mmHg 60%
    02:00 +5°C° 0 mm 2 mps 697 mmHg 58%
    03:00 +5°C° 0 mm 2 mps 697 mmHg 57%
    04:00 +4°C° 0 mm 2 mps 697 mmHg 54%
    05:00 +4°C° 0 mm 2 mps 696 mmHg 52%
    06:00 +4°C° 0 mm 2 mps 696 mmHg 50%
    07:00 +7°C° 0 mm 1 mps 697 mmHg 46%
    08:00 +9°C° 0 mm 1 mps 697 mmHg 42%
    09:00 +10°C° 0 mm 1 mps 697 mmHg 37%
    10:00 +12°C° 0 mm 1 mps 697 mmHg 33%
    11:00 +14°C° 0 mm 1 mps 697 mmHg 29%
    12:00 +18°C° 0 mm 1 mps 697 mmHg 24%
    13:00 +18°C° 0 mm 1 mps 697 mmHg 24%
    14:00 +17°C° 0 mm 2 mps 697 mmHg 24%
    15:00 +17°C° 0 mm 2 mps 696 mmHg 23%
    16:00 +15°C° 0 mm 1 mps 696 mmHg 28%
    17:00 +13°C° 0 mm 1 mps 695 mmHg 33%
    18:00 +11°C° 0 mm 1 mps 694 mmHg 38%
    19:00 +10°C° 0 mm 1 mps 695 mmHg 41%
    20:00 +10°C° 0 mm 1 mps 695 mmHg 44%
    21:00 +9°C° 0 mm 1 mps 695 mmHg 47%
    22:00 +8°C° 0 mm 1 mps 695 mmHg 51%
    23:00 +8°C° 0 mm 1 mps 695 mmHg 55%

    Tomorrow, 18 February, Monday

    Time Temperature Precipitation Wind Pressure Humidity
    00:00 +7°C° 0 mm 1 mps 694 mmHg 58%
    01:00 +7°C° 0 mm 1 mps 694 mmHg 61%
    02:00 +7°C° 0 mm 1 mps 694 mmHg 64%
    03:00 +5°C° 0 mm 2 mps 693 mmHg 67%
    04:00 +5°C° 0 mm 2 mps 693 mmHg 66%
    05:00 +5°C° 0 mm 2 mps 693 mmHg 64%
    06:00 +5°C° 0 mm 2 mps 693 mmHg 63%
    07:00 +6°C° 0 mm 2 mps 693 mmHg 56%
    08:00 +8°C° 0 mm 2 mps 693 mmHg 49%
    09:00 +9°C° 0 mm 2 mps 694 mmHg 42%
    10:00 +12°C° 0 mm 2 mps 694 mmHg 36%
    11:00 +14°C° 0 mm 2 mps 694 mmHg 30%
    12:00 +16°C° 0 mm 2 mps 694 mmHg 24%
    13:00 +16°C° 0 mm 2 mps 693 mmHg 25%
    14:00 +16°C° 0 mm 2 mps 693 mmHg 26%
    15:00 +16°C° 0 mm 2 mps 693 mmHg 26%
    16:00 +14°C° 0 mm 1 mps 692 mmHg 33%
    17:00 +13°C° 0 mm 1 mps 692 mmHg 39%
    18:00 +11°C° 0 mm 1 mps 692 mmHg 46%
    19:00 +10°C° 0 mm 1 mps 692 mmHg 51%
    20:00 +9°C° 0 mm 1 mps 693 mmHg 56%
    21:00 +9°C° 0 mm 1 mps 693 mmHg 61%
    22:00 +8°C° 0 mm 1 mps 693 mmHg 64%
    23:00 +8°C° 0 mm 1 mps 693 mmHg 67%

    Day after tomorrow, 19 February, Tuesday

    Time Temperature Precipitation Wind Pressure Humidity
    00:00 +7°C° 0 mm 1 mps 693 mmHg 70%
    01:00 +7°C° 0 mm 1 mps 693 mmHg 70%
    02:00 +7°C° 0 mm 1 mps 693 mmHg 71%
    03:00 +7°C° 0 mm 1 mps 693 mmHg 72%
    04:00 +6°C° 0 mm 1 mps 693 mmHg 71%
    05:00 +6°C° 0 mm 1 mps 693 mmHg 70%
    06:00 +6°C° 0 mm 1 mps 693 mmHg 69%
    07:00 +7°C° 0 mm 1 mps 694 mmHg 62%
    08:00 +9°C° 0 mm 1 mps 695 mmHg 55%
    09:00 +10°C° 0 mm 1 mps 695 mmHg 48%
    10:00 +12°C° 0 mm 1 mps 696 mmHg 43%
    11:00 +13°C° 0 mm 0 mps 696 mmHg 38%
    12:00 +14°C° 0 mm 0 mps 696 mmHg 32%
    13:00 +15°C° 0 mm 0 mps 695 mmHg 31%
    14:00 +16°C° 0 mm 1 mps 695 mmHg 31%
    15:00 +16°C° 0 mm 1 mps 695 mmHg 30%
    16:00 +14°C° 0 mm 1 mps 694 mmHg 34%
    17:00 +13°C° 0 mm 1 mps 694 mmHg 39%
    18:00 +11°C° 0 mm 1 mps 694 mmHg 44%
    19:00 +10°C° 0 mm 1 mps 695 mmHg 46%
    20:00 +9°C° 0 mm 1 mps 695 mmHg 48%
    21:00 +9°C° 0 mm 1 mps 695 mmHg 51%
    22:00 +8°C° 0 mm 1 mps 695 mmHg 52%
    23:00 +8°C° 0 mm 1 mps 695 mmHg 54%

    20 February, Wednesday

    Time Temperature Precipitation Wind Pressure Humidity
    00:00 +7°C° 0 mm 1 mps 696 mmHg 56%
    01:00 +7°C° 0 mm 1 mps 695 mmHg 58%
    02:00 +6°C° 0 mm 1 mps 695 mmHg 60%
    03:00 +6°C° 0 mm 1 mps 695 mmHg 62%
    04:00 +6°C° 0 mm 1 mps 695 mmHg 64%
    05:00 +5°C° 0 mm 1 mps 695 mmHg 66%
    06:00 +5°C° 0 mm 1 mps 695 mmHg 67%
    07:00 +7°C° 0 mm 1 mps 696 mmHg 62%
    08:00 +8°C° 0 mm 1 mps 697 mmHg 57%
    09:00 +10°C° 0 mm 1 mps 698 mmHg 52%
    10:00 +12°C° 0 mm 1 mps 698 mmHg 45%
    11:00 +13°C° 0 mm 1 mps 698 mmHg 39%
    12:00 +15°C° 0 mm 1 mps 698 mmHg 32%
    13:00 +15°C° 0 mm 1 mps 698 mmHg 30%
    14:00 +16°C° 0 mm 1 mps 697 mmHg 28%
    15:00 +16°C° 0 mm 1 mps 697 mmHg 27%
    16:00 +14°C° 0 mm 1 mps 697 mmHg 30%
    17:00 +12°C° 0 mm 1 mps 697 mmHg 34%
    18:00 +11°C° 0 mm 1 mps 697 mmHg 38%
    19:00 +10°C° 0 mm 1 mps 697 mmHg 39%
    20:00 +8°C° 0 mm 2 mps 698 mmHg 40%
    21:00 +7°C° 0 mm 2 mps 698 mmHg 41%
    22:00 +7°C° 0 mm 2 mps 698 mmHg 42%
    23:00 +6°C° 0 mm 2 mps 698 mmHg 43%

    21 February, Thursday

    Time Temperature Precipitation Wind Pressure Humidity
    00:00 +5°C° 0 mm 2 mps 698 mmHg 45%
    01:00 +5°C° 0 mm 2 mps 698 mmHg 49%
    02:00 +5°C° 0 mm 2 mps 698 mmHg 53%
    03:00 +4°C° 0 mm 2 mps 698 mmHg 57%
    04:00 +4°C° 0 mm 2 mps 698 mmHg 60%
    05:00 +4°C° 0 mm 2 mps 698 mmHg 64%
    06:00 +3°C° 0 mm 2 mps 698 mmHg 67%
    07:00 +5°C° 0 mm 2 mps 699 mmHg 62%
    08:00 +7°C° 0 mm 2 mps 699 mmHg 57%
    09:00 +8°C° 0 mm 2 mps 700 mmHg 53%
    10:00 +10°C° 0 mm 2 mps 700 mmHg 45%
    11:00 +13°C° 0 mm 1 mps 701 mmHg 38%
    12:00 +15°C° 0 mm 1 mps 701 mmHg 31%
    13:00 +16°C° 0 mm 1 mps 701 mmHg 29%
    14:00 +16°C° 0 mm 1 mps 701 mmHg 28%
    15:00 +18°C° 0 mm 1 mps 700 mmHg 26%
    16:00 +15°C° 0 mm 1 mps 700 mmHg 31%
    17:00 +13°C° 0 mm 1 mps 700 mmHg 35%
    18:00 +11°C° 0 mm 1 mps 700 mmHg 39%
    19:00 +10°C° 0 mm 1 mps 700 mmHg 43%
    20:00 +9°C° 0 mm 1 mps 701 mmHg 47%
    21:00 +8°C° 0 mm 1 mps 701 mmHg 51%
    22:00 +8°C° 0 mm 1 mps 701 mmHg 56%
    23:00 +7°C° 0 mm 1 mps 701 mmHg 62%

    22 February, Friday

    Time Temperature Precipitation Wind Pressure Humidity
    00:00 +6°C° 0 mm 2 mps 701 mmHg 67%
    01:00 +6°C° 0 mm 2 mps 701 mmHg 71%
    02:00 +6°C° 0 mm 1 mps 701 mmHg 75%
    03:00 +6°C° 0 mm 1 mps 701 mmHg 79%
    04:00 +6°C° 0 mm 1 mps 700 mmHg 79%
    05:00 +6°C° 0 mm 1 mps 700 mmHg 78%
    06:00 +5°C° 0 mm 1 mps 700 mmHg 78%
    07:00 +7°C° 0 mm 1 mps 701 mmHg 68%
    08:00 +9°C° 0 mm 1 mps 702 mmHg 58%
    09:00 +11°C° 0 mm 1 mps 702 mmHg 48%
    10:00 +13°C° 0 mm 1 mps 702 mmHg 42%
    11:00 +15°C° 0 mm 1 mps 702 mmHg 35%
    12:00 +18°C° 0 mm 1 mps 702 mmHg 28%
    13:00 +18°C° 0 mm 1 mps 702 mmHg 26%
    14:00 +19°C° 0 mm 1 mps 702 mmHg 24%
    15:00 +19°C° 0 mm 1 mps 701 mmHg 22%
    16:00 +16°C° 0 mm 1 mps 701 mmHg 26%
    17:00 +13°C° 0 mm 0 mps 700 mmHg 31%
    18:00 +11°C° 0 mm 0 mps 700 mmHg 35%
    19:00 +10°C° 0 mm 0 mps 700 mmHg 37%
    20:00 +10°C° 0 mm 0 mps 700 mmHg 39%
    21:00 +9°C° 0 mm 0 mps 701 mmHg 40%
    22:00 +8°C° 0 mm 0 mps 700 mmHg 41%
    23:00 +8°C° 0 mm 0 mps 700 mmHg 42%
    Show more